| time (UTC) | temp C | wind direction | speed KPH | gust KPH | rain 1hr cm | rain 24hr cm | rain mn cm | humidity % | barometer mb |
| 20260904125621 | 18 | 97 | 4.8 | 12.9 | 0.00 | 0.00 | 0.00 | 71 | 1016.5 |
| 20260904125556 | 17 | 93 | 3.2 | 9.7 | 0.00 | 0.00 | 0.00 | 69 | 1016.6 |
| 20260904124532 | 17 | 177 | 3.2 | 6.4 | 0.00 | 0.00 | 0.00 | 71 | 1016.7 |
| 20260904124024 | 17 | 222 | 1.6 | 12.9 | 0.00 | 0.00 | 0.00 | 72 | 1016.6 |
| 20260904123523 | 17 | 177 | 3.2 | 12.9 | 0.00 | 0.00 | 0.00 | 82 | 1016.7 |
| 20260904123252 | 17 | 115 | 4.8 | 12.9 | 0.00 | 0.00 | 0.00 | 80 | 1016.6 |
| 20260904122519 | 17 | 137 | 4.8 | 12.9 | 0.00 | 0.00 | 0.00 | 82 | 1016.7 |
| 20260904122015 | 16 | 85 | 3.2 | 9.7 | 0.00 | 0.00 | 0.00 | 85 | 1016.8 |
| 20260904121450 | 16 | 60 | 1.6 | 6.4 | 0.00 | 0.00 | 0.00 | 87 | 1016.7 |
| 20260904120931 | 16 | 128 | 4.8 | 6.4 | 0.00 | 0.00 | 0.00 | 88 | 1016.5 |
| 20260904120923 | 16 | 39 | 3.2 | 6.4 | 0.00 | 0.00 | 0.00 | 88 | 1016.7 |
| 20260904120127 | 15 | 98 | 3.2 | 9.7 | 0.00 | 0.00 | 0.00 | 88 | 1016.4 |
| 20260904115330 | 15 | 110 | 4.8 | 9.7 | 0.00 | 0.00 | 0.00 | 88 | 1016.5 |
| 20260904114819 | 15 | 102 | 3.2 | 8.0 | 0.00 | 0.00 | 0.00 | 89 | 1016.4 |
| 20260904114319 | 15 | 120 | 1.6 | 4.8 | 0.00 | 0.00 | 0.00 | 92 | 1016.5 |
| 20260904114027 | 15 | 103 | 1.6 | 4.8 | 0.00 | 0.00 | 0.00 | 94 | 1016.5 |
| 20260904113247 | 15 | 150 | 1.6 | 4.8 | 0.00 | 0.00 | 0.00 | 95 | 1016.5 |
| 20260904112736 | 15 | 127 | 1.6 | 4.8 | 0.00 | 0.00 | 0.00 | 96 | 1016.3 |
| 20260904112208 | 15 | 114 | 1.6 | 4.8 | 0.00 | 0.00 | 0.00 | 97 | 1016.3 |
| 20260904111707 | 14 | 120 | 1.6 | 4.8 | 0.00 | 0.00 | 0.00 | 98 | 1016.3 |
| 20260904111135 | 14 | 158 | 0.0 | 3.2 | 0.00 | 0.00 | 0.00 | 98 | 1016.5 |
| 20260904110634 | 14 | 303 | 0.0 | 1.6 | 0.00 | 0.00 | 0.00 | 98 | 1016.4 |
| 20260904110110 | 13 | 303 | 0.0 | 0.0 | 0.00 | 0.00 | 0.00 | 98 | 1016.4 |
| 20260904105600 | 13 | 303 | 0.0 | 0.0 | 0.00 | 0.00 | 0.00 | 97 | 1016.4 |
| 20260904105036 | 12 | 303 | 0.0 | 1.6 | 0.00 | 0.00 | 0.00 | 97 | 1016.5 |
| 20260904104742 | 12 | 303 | 0.0 | 1.6 | 0.00 | 0.00 | 0.00 | 96 | 1016.5 |
| 20260904103943 | 12 | 303 | 0.0 | 0.0 | 0.00 | 0.00 | 0.00 | 96 | 1016.4 |
| 20260904103441 | 12 | 303 | 0.0 | 0.0 | 0.00 | 0.00 | 0.00 | 96 | 1016.5 |
| 20260904102939 | 12 | 303 | 0.0 | 0.0 | 0.00 | 0.00 | 0.00 | 95 | 1016.3 |
| 20260904102430 | 12 | 303 | 0.0 | 0.0 | 0.00 | 0.00 | 0.00 | 95 | 1016.3 |
| 20260904101918 | 12 | 303 | 0.0 | 0.0 | 0.00 | 0.00 | 0.00 | 95 | 1016.4 |
| 20260904101419 | 12 | 303 | 0.0 | 0.0 | 0.00 | 0.00 | 0.00 | 95 | 1016.3 |
| 20260904100928 | 12 | 303 | 0.0 | 0.0 | 0.00 | 0.00 | 0.00 | 94 | 1016.2 |
| 20260904100919 | 12 | 303 | 0.0 | 0.0 | 0.00 | 0.00 | 0.00 | 94 | 1016.3 |
| 20260904095909 | 12 | 303 | 0.0 | 0.0 | 0.00 | 0.00 | 0.00 | 94 | 1016.0 |
| 20260904095407 | 12 | 303 | 0.0 | 0.0 | 0.00 | 0.00 | 0.00 | 94 | 1016.0 |
| 20260904094906 | 12 | 303 | 0.0 | 0.0 | 0.00 | 0.00 | 0.00 | 93 | 1016.0 |
| 20260904094404 | 12 | 303 | 0.0 | 0.0 | 0.00 | 0.00 | 0.00 | 93 | 1015.8 |
| 20260904094129 | 12 | 303 | 0.0 | 0.0 | 0.00 | 0.00 | 0.00 | 93 | 1015.7 |
| 20260904093559 | 12 | 303 | 0.0 | 0.0 | 0.00 | 0.00 | 0.00 | 93 | 1015.7 |
| 20260904092825 | 13 | 303 | 0.0 | 0.0 | 0.00 | 0.00 | 0.00 | 93 | 1015.7 |
| 20260904092529 | 13 | 303 | 0.0 | 0.0 | 0.00 | 0.00 | 0.00 | 92 | 1015.3 |
| 20260904091738 | 13 | 303 | 0.0 | 0.0 | 0.00 | 0.00 | 0.00 | 92 | 1015.3 |
| 20260904091237 | 13 | 303 | 0.0 | 0.0 | 0.00 | 0.00 | 0.00 | 92 | 1015.3 |
| 20260904090942 | 13 | 303 | 0.0 | 1.6 | 0.00 | 0.00 | 0.00 | 92 | 1015.2 |
| 20260904090147 | 13 | 303 | 1.6 | 3.2 | 0.00 | 0.00 | 0.00 | 92 | 1015.3 |
| 20260904085646 | 14 | 303 | 1.6 | 3.2 | 0.00 | 0.00 | 0.00 | 92 | 1015.2 |
| 20260904085144 | 14 | 262 | 0.0 | 1.6 | 0.00 | 0.00 | 0.00 | 93 | 1015.0 |
| 20260904084621 | 14 | 262 | 0.0 | 1.6 | 0.00 | 0.00 | 0.00 | 92 | 1014.9 |
| 20260904084121 | 14 | 262 | 0.0 | 1.6 | 0.00 | 0.00 | 0.00 | 92 | 1015.0 |
| 20260904083853 | 15 | 262 | 0.0 | 1.6 | 0.00 | 0.00 | 0.00 | 92 | 1015.0 |
| 20260904083341 | 15 | 262 | 0.0 | 1.6 | 0.00 | 0.00 | 0.00 | 93 | 1015.0 |
| 20260904082609 | 15 | 262 | 0.0 | 1.6 | 0.00 | 0.00 | 0.00 | 92 | 1015.1 |
| 20260904082106 | 15 | 262 | 0.0 | 1.6 | 0.00 | 0.00 | 0.00 | 93 | 1014.8 |
| 20260904081605 | 15 | 262 | 0.0 | 1.6 | 0.00 | 0.00 | 0.00 | 92 | 1014.9 |
| 20260904081039 | 15 | 262 | 0.0 | 1.6 | 0.00 | 0.00 | 0.00 | 92 | 1014.8 |
| 20260904080517 | 15 | 262 | 0.0 | 1.6 | 0.00 | 0.00 | 0.00 | 92 | 1014.7 |
| 20260904080015 | 15 | 262 | 0.0 | 1.6 | 0.00 | 0.00 | 0.00 | 92 | 1014.8 |
| 20260904075746 | 15 | 262 | 0.0 | 3.2 | 0.00 | 0.00 | 0.00 | 93 | 1014.8 |
| 20260904075015 | 15 | 262 | 0.0 | 3.2 | 0.00 | 0.00 | 0.00 | 92 | 1014.8 |
| 20260904074512 | 15 | 256 | 0.0 | 3.2 | 0.00 | 0.00 | 0.00 | 92 | 1014.6 |
| 20260904074010 | 15 | 217 | 0.0 | 3.2 | 0.00 | 0.00 | 0.00 | 92 | 1014.4 |
| 20260904073510 | 15 | 217 | 0.0 | 0.0 | 0.00 | 0.00 | 0.00 | 93 | 1014.6 |
| 20260904072945 | 15 | 177 | 0.0 | 1.6 | 0.00 | 0.00 | 0.00 | 92 | 1014.6 |
| 20260904072648 | 15 | 177 | 0.0 | 1.6 | 0.00 | 0.00 | 0.00 | 92 | 1014.6 |
| 20260904071913 | 15 | 266 | 1.6 | 3.2 | 0.00 | 0.00 | 0.00 | 92 | 1014.4 |
| 20260904071409 | 15 | 266 | 1.6 | 3.2 | 0.00 | 0.00 | 0.00 | 92 | 1014.5 |
| 20260904070904 | 15 | 220 | 1.6 | 4.8 | 0.00 | 0.00 | 0.00 | 92 | 1014.4 |
| 20260904070400 | 15 | 258 | 1.6 | 4.8 | 0.00 | 0.00 | 0.00 | 92 | 1014.2 |
| 20260904065837 | 15 | 263 | 3.2 | 4.8 | 0.00 | 0.00 | 0.00 | 92 | 1014.3 |
| 20260904065312 | 15 | 267 | 1.6 | 4.8 | 0.00 | 0.00 | 0.00 | 92 | 1014.2 |
| 20260904064744 | 15 | 257 | 1.6 | 4.8 | 0.00 | 0.00 | 0.00 | 92 | 1014.0 |
| 20260904064511 | 15 | 239 | 1.6 | 3.2 | 0.00 | 0.00 | 0.00 | 91 | 1013.8 |
| 20260904063738 | 15 | 233 | 0.0 | 3.2 | 0.00 | 0.00 | 0.00 | 91 | 1013.7 |
| 20260904063211 | 15 | 233 | 0.0 | 3.2 | 0.00 | 0.00 | 0.00 | 91 | 1013.6 |
| 20260904062704 | 15 | 234 | 0.0 | 3.2 | 0.00 | 0.00 | 0.00 | 91 | 1013.7 |
| 20260904062140 | 15 | 232 | 1.6 | 3.2 | 0.00 | 0.00 | 0.00 | 91 | 1013.7 |
| 20260904061615 | 15 | 138 | 0.0 | 3.2 | 0.00 | 0.00 | 0.00 | 91 | 1013.7 |
| 20260904061345 | 15 | 41 | 0.0 | 3.2 | 0.00 | 0.00 | 0.00 | 91 | 1013.6 |
| 20260904060609 | 15 | 253 | 0.0 | 6.4 | 0.00 | 0.00 | 0.00 | 91 | 1013.7 |
| 20260904060107 | 15 | 253 | 1.6 | 6.4 | 0.00 | 0.00 | 0.00 | 91 | 1013.7 |
| 20260904055606 | 15 | 243 | 3.2 | 9.7 | 0.00 | 0.00 | 0.00 | 91 | 1013.8 |
| 20260904055107 | 15 | 217 | 3.2 | 9.7 | 0.00 | 0.00 | 0.00 | 91 | 1013.8 |
| 20260904054542 | 15 | 242 | 3.2 | 6.4 | 0.00 | 0.00 | 0.00 | 91 | 1013.6 |
| 20260904054043 | 15 | 263 | 3.2 | 6.4 | 0.00 | 0.00 | 0.00 | 91 | 1013.6 |
| 20260904053541 | 15 | 231 | 3.2 | 6.4 | 0.00 | 0.00 | 0.00 | 91 | 1013.3 |
| 20260904053314 | 15 | 252 | 3.2 | 8.0 | 0.00 | 0.00 | 0.00 | 91 | 1013.4 |
| 20260904052524 | 15 | 246 | 1.6 | 8.0 | 0.00 | 0.00 | 0.00 | 91 | 1013.3 |
| 20260904052025 | 15 | 217 | 1.6 | 4.8 | 0.00 | 0.00 | 0.00 | 91 | 1013.2 |
| 20260904051519 | 15 | 246 | 1.6 | 4.8 | 0.00 | 0.00 | 0.00 | 91 | 1013.2 |
| 20260904050950 | 15 | 255 | 1.6 | 4.8 | 0.00 | 0.00 | 0.00 | 90 | 1013.2 |
| 20260904050427 | 15 | 261 | 1.6 | 6.4 | 0.00 | 0.00 | 0.00 | 91 | 1013.4 |
| 20260904045827 | 15 | 201 | 1.6 | 6.4 | 0.00 | 0.00 | 0.00 | 90 | 1013.2 |
| 20260904045325 | 15 | 253 | 3.2 | 6.4 | 0.00 | 0.00 | 0.00 | 90 | 1013.2 |
| 20260904044759 | 15 | 247 | 3.2 | 6.4 | 0.00 | 0.00 | 0.00 | 91 | 1013.4 |
| 20260904044228 | 15 | 220 | 1.6 | 3.2 | 0.00 | 0.00 | 0.00 | 91 | 1013.1 |
| 20260904043701 | 15 | 106 | 1.6 | 4.8 | 0.00 | 0.00 | 0.00 | 90 | 1013.0 |
| 20260904043156 | 15 | 46 | 1.6 | 4.8 | 0.00 | 0.00 | 0.00 | 90 | 1013.2 |
| 20260904042644 | 15 | 64 | 1.6 | 4.8 | 0.00 | 0.00 | 0.00 | 90 | 1013.1 |
| 20260904042411 | 15 | 106 | 1.6 | 3.2 | 0.00 | 0.00 | 0.00 | 90 | 1013.2 |
| 20260904041637 | 15 | 177 | 1.6 | 4.8 | 0.00 | 0.00 | 0.00 | 90 | 1013.4 |
| 20260904041113 | 15 | 167 | 1.6 | 4.8 | 0.00 | 0.00 | 0.00 | 90 | 1013.3 |
| 20260904040542 | 16 | 238 | 3.2 | 6.4 | 0.00 | 0.00 | 0.00 | 90 | 1013.3 |
| 20260904040040 | 15 | 243 | 3.2 | 6.4 | 0.00 | 0.00 | 0.00 | 90 | 1013.3 |
| 20260904035511 | 15 | 81 | 1.6 | 6.4 | 0.00 | 0.00 | 0.00 | 90 | 1013.1 |
| 20260904034946 | 16 | 130 | 1.6 | 6.4 | 0.00 | 0.00 | 0.00 | 90 | 1013.6 |
| 20260904034416 | 16 | 140 | 3.2 | 6.4 | 0.00 | 0.00 | 0.00 | 90 | 1013.3 |
| 20260904034146 | 16 | 161 | 3.2 | 6.4 | 0.00 | 0.00 | 0.00 | 90 | 1013.2 |
| 20260904033403 | 16 | 154 | 3.2 | 6.4 | 0.00 | 0.00 | 0.00 | 90 | 1013.1 |
| 20260904032902 | 16 | 243 | 1.6 | 6.4 | 0.00 | 0.00 | 0.00 | 90 | 1013.4 |
| 20260904032348 | 16 | 247 | 1.6 | 6.4 | 0.00 | 0.00 | 0.00 | 90 | 1013.4 |
| 20260904031851 | 16 | 158 | 1.6 | 6.4 | 0.00 | 0.00 | 0.00 | 90 | 1013.2 |
| 20260904031323 | 16 | 132 | 1.6 | 6.4 | 0.00 | 0.00 | 0.00 | 90 | 1013.2 |
| 20260904030824 | 16 | 285 | 1.6 | 6.4 | 0.00 | 0.00 | 0.00 | 90 | 1013.3 |
| 20260904030305 | 16 | 231 | 1.6 | 4.8 | 0.00 | 0.00 | 0.00 | 90 | 1013.0 |
| 20260904025759 | 16 | 216 | 1.6 | 11.3 | 0.00 | 0.00 | 0.00 | 90 | 1013.1 |
| 20260904025259 | 16 | 160 | 3.2 | 11.3 | 0.00 | 0.00 | 0.00 | 90 | 1012.9 |
| 20260904024757 | 16 | 133 | 3.2 | 14.5 | 0.00 | 0.00 | 0.00 | 89 | 1013.0 |
| 20260904024256 | 16 | 210 | 3.2 | 14.5 | 0.00 | 0.00 | 0.00 | 89 | 1012.8 |
| 20260904023730 | 16 | 106 | 3.2 | 11.3 | 0.00 | 0.00 | 0.00 | 89 | 1012.7 |
| 20260904023227 | 16 | 145 | 3.2 | 11.3 | 0.00 | 0.00 | 0.00 | 89 | 1012.8 |
| 20260904022655 | 16 | 131 | 3.2 | 8.0 | 0.00 | 0.00 | 0.00 | 89 | 1012.5 |
| 20260904022359 | 16 | 145 | 3.2 | 11.3 | 0.00 | 0.00 | 0.00 | 89 | 1012.5 |
| 20260904021625 | 16 | 133 | 4.8 | 11.3 | 0.00 | 0.00 | 0.00 | 88 | 1012.7 |
| 20260904021346 | 16 | 122 | 3.2 | 8.0 | 0.00 | 0.00 | 0.00 | 88 | 1012.7 |
| 20260904020612 | 17 | 139 | 3.2 | 8.0 | 0.00 | 0.00 | 0.00 | 88 | 1012.8 |
| 20260904020109 | 17 | 124 | 6.4 | 16.1 | 0.00 | 0.00 | 0.00 | 88 | 1012.7 |
| 20260904015605 | 17 | 114 | 6.4 | 16.1 | 0.00 | 0.00 | 0.00 | 87 | 1012.4 |
| 20260904015047 | 17 | 112 | 3.2 | 8.0 | 0.00 | 0.00 | 0.00 | 87 | 1012.2 |
| 20260904014752 | 17 | 93 | 3.2 | 8.0 | 0.00 | 0.00 | 0.00 | 87 | 1012.2 |
| 20260904014240 | 18 | 99 | 4.8 | 11.3 | 0.00 | 0.00 | 0.00 | 86 | 1012.1 |
| 20260904013739 | 18 | 149 | 4.8 | 14.5 | 0.00 | 0.00 | 0.00 | 86 | 1012.0 |
| 20260904012942 | 18 | 244 | 4.8 | 11.3 | 0.00 | 0.00 | 0.00 | 86 | 1011.8 |
| 20260904012428 | 18 | 108 | 3.2 | 9.7 | 0.00 | 0.00 | 0.00 | 87 | 1011.7 |
| 20260904011930 | 18 | 228 | 3.2 | 6.4 | 0.00 | 0.00 | 0.00 | 86 | 1011.9 |
| 20260904011403 | 19 | 143 | 3.2 | 6.4 | 0.00 | 0.00 | 0.00 | 86 | 1011.7 |
| 20260904010859 | 19 | 126 | 6.4 | 14.5 | 0.00 | 0.00 | 0.00 | 86 | 1011.5 |
| 20260904010348 | 19 | 116 | 8.0 | 14.5 | 0.00 | 0.00 | 0.00 | 85 | 1011.4 |
| 20260904005839 | 20 | 101 | 4.8 | 14.5 | 0.00 | 0.00 | 0.00 | 85 | 1011.3 |
| 20260904005337 | 20 | 87 | 3.2 | 11.3 | 0.00 | 0.00 | 0.00 | 86 | 1011.5 |
| 20260904004827 | 20 | 72 | 3.2 | 11.3 | 0.00 | 0.00 | 0.00 | 86 | 1011.6 |
| 20260904004328 | 20 | 135 | 3.2 | 8.0 | 0.00 | 0.00 | 0.00 | 87 | 1012.0 |
| 20260904003802 | 20 | 226 | 0.0 | 8.0 | 0.00 | 0.00 | 0.00 | 88 | 1012.1 |
| 20260904003250 | 20 | 236 | 0.0 | 0.0 | 0.00 | 0.00 | 0.00 | 89 | 1011.7 |
| 20260904003025 | 20 | 195 | 0.0 | 0.0 | 0.00 | 0.00 | 0.00 | 88 | 1011.6 |
| 20260904002235 | 20 | 195 | 0.0 | 0.0 | 0.00 | 0.00 | 0.00 | 88 | 1011.4 |
| 20260904001734 | 20 | 195 | 0.0 | 0.0 | 0.00 | 0.00 | 0.00 | 87 | 1011.5 |
| 20260904001228 | 20 | 195 | 0.0 | 3.2 | 0.00 | 0.00 | 0.00 | 86 | 1011.3 |
| 20260904000707 | 20 | 187 | 0.0 | 3.2 | 0.00 | 0.00 | 0.00 | 86 | 1011.2 |
| 20260904000700 | 20 | 195 | 1.6 | 3.2 | 0.00 | 0.00 | 0.00 | 86 | 1011.3 |
| 20260903235653 | 20 | 287 | 0.0 | 3.2 | 0.00 | 0.00 | 0.00 | 86 | 1011.1 |
| 20260903235149 | 20 | 316 | 0.0 | 3.2 | 0.00 | 0.00 | 0.00 | 85 | 1011.2 |
| 20260903234645 | 21 | 316 | 0.0 | 1.6 | 0.00 | 0.00 | 0.00 | 85 | 1010.9 |
| 20260903234143 | 21 | 316 | 0.0 | 1.6 | 0.00 | 0.00 | 0.00 | 84 | 1011.0 |
| 20260903233637 | 21 | 316 | 0.0 | 3.2 | 0.00 | 0.00 | 0.00 | 84 | 1010.9 |
| 20260903233135 | 21 | 316 | 1.6 | 3.2 | 0.00 | 0.00 | 0.00 | 83 | 1010.8 |
| 20260903232839 | 21 | 43 | 1.6 | 3.2 | 0.00 | 0.00 | 0.00 | 83 | 1010.8 |
| 20260903232106 | 21 | 18 | 0.0 | 3.2 | 0.00 | 0.00 | 0.00 | 82 | 1010.9 |
| 20260903231609 | 21 | 264 | 1.6 | 6.4 | 0.00 | 0.00 | 0.00 | 83 | 1011.0 |
| 20260903231323 | 21 | 264 | 1.6 | 6.4 | 0.00 | 0.00 | 0.00 | 82 | 1011.0 |
| 20260903230552 | 21 | 266 | 0.0 | 4.8 | 0.00 | 0.00 | 0.00 | 82 | 1011.0 |
| 20260903230054 | 21 | 235 | 0.0 | 0.0 | 0.00 | 0.00 | 0.00 | 82 | 1010.8 |
| 20260903225527 | 21 | 235 | 0.0 | 0.0 | 0.00 | 0.00 | 0.00 | 82 | 1010.6 |
| 20260903225011 | 22 | 235 | 0.0 | 3.2 | 0.00 | 0.00 | 0.00 | 79 | 1010.6 |
| 20260903224511 | 22 | 235 | 0.0 | 3.2 | 0.00 | 0.00 | 0.00 | 79 | 1010.3 |
| 20260903224009 | 22 | 96 | 0.0 | 3.2 | 0.00 | 0.00 | 0.00 | 78 | 1010.3 |
| 20260903223456 | 22 | 96 | 0.0 | 3.2 | 0.00 | 0.00 | 0.00 | 78 | 1010.2 |
| 20260903223226 | 22 | 275 | 0.0 | 3.2 | 0.00 | 0.00 | 0.00 | 76 | 1010.2 |
| 20260903222452 | 23 | 332 | 0.0 | 0.0 | 0.00 | 0.00 | 0.00 | 75 | 1010.1 |
| 20260903221927 | 23 | 332 | 0.0 | 3.2 | 0.00 | 0.00 | 0.00 | 73 | 1009.9 |
| 20260903221421 | 23 | 332 | 0.0 | 3.2 | 0.00 | 0.00 | 0.00 | 74 | 1009.8 |
| 20260903220917 | 23 | 292 | 0.0 | 3.2 | 0.00 | 0.00 | 0.00 | 74 | 1009.9 |
| 20260903220352 | 23 | 292 | 0.0 | 3.2 | 0.00 | 0.00 | 0.00 | 72 | 1009.9 |
| 20260903215824 | 24 | 292 | 1.6 | 3.2 | 0.00 | 0.00 | 0.00 | 69 | 1009.8 |
| 20260903215317 | 24 | 292 | 1.6 | 4.8 | 0.00 | 0.00 | 0.00 | 69 | 1009.7 |
| 20260903215023 | 24 | 258 | 1.6 | 6.4 | 0.00 | 0.00 | 0.00 | 67 | 1009.7 |
| 20260903214248 | 24 | 243 | 1.6 | 6.4 | 0.00 | 0.00 | 0.00 | 65 | 1009.6 |
| 20260903213748 | 25 | 211 | 1.6 | 3.2 | 0.00 | 0.00 | 0.00 | 66 | 1009.5 |
| 20260903213249 | 25 | 267 | 1.6 | 4.8 | 0.00 | 0.00 | 0.00 | 66 | 1009.6 |
| 20260903212749 | 25 | 270 | 1.6 | 6.4 | 0.00 | 0.00 | 0.00 | 63 | 1009.5 |
| 20260903212237 | 25 | 214 | 3.2 | 8.0 | 0.00 | 0.00 | 0.00 | 60 | 1009.5 |
| 20260903211735 | 25 | 224 | 1.6 | 8.0 | 0.00 | 0.00 | 0.00 | 58 | 1009.2 |
| 20260903211231 | 26 | 248 | 1.6 | 4.8 | 0.00 | 0.00 | 0.00 | 58 | 1009.2 |
| 20260903210932 | 26 | 278 | 1.6 | 6.4 | 0.00 | 0.00 | 0.00 | 60 | 1009.2 |
| 20260903210158 | 26 | 270 | 1.6 | 6.4 | 0.00 | 0.00 | 0.00 | 59 | 1009.0 |
| 20260903205656 | 26 | 204 | 1.6 | 6.4 | 0.00 | 0.00 | 0.00 | 56 | 1009.0 |
| 20260903205132 | 26 | 254 | 1.6 | 6.4 | 0.00 | 0.00 | 0.00 | 55 | 1008.9 |
| 20260903204621 | 26 | 262 | 3.2 | 12.9 | 0.00 | 0.00 | 0.00 | 56 | 1008.9 |
| 20260903204120 | 26 | 316 | 3.2 | 12.9 | 0.00 | 0.00 | 0.00 | 54 | 1008.9 |
| 20260903203606 | 27 | 270 | 3.2 | 11.3 | 0.00 | 0.00 | 0.00 | 55 | 1008.7 |
| 20260903203111 | 27 | 243 | 3.2 | 6.4 | 0.00 | 0.00 | 0.00 | 54 | 1008.6 |
| 20260903202600 | 27 | 292 | 3.2 | 9.7 | 0.00 | 0.00 | 0.00 | 55 | 1008.5 |
| 20260903202058 | 27 | 257 | 3.2 | 9.7 | 0.00 | 0.00 | 0.00 | 54 | 1008.6 |
| 20260903201540 | 27 | 237 | 3.2 | 11.3 | 0.00 | 0.00 | 0.00 | 55 | 1008.7 |
| 20260903201017 | 28 | 289 | 3.2 | 11.3 | 0.00 | 0.00 | 0.00 | 53 | 1008.5 |
| 20260903200446 | 28 | 237 | 3.2 | 12.9 | 0.00 | 0.00 | 0.00 | 53 | 1008.4 |
| 20260903195944 | 28 | 350 | 1.6 | 12.9 | 0.00 | 0.00 | 0.00 | 53 | 1008.4 |
| 20260903195442 | 28 | 268 | 0.0 | 9.7 | 0.00 | 0.00 | 0.00 | 53 | 1008.3 |
| 20260903194945 | 27 | 187 | 1.6 | 4.8 | 0.00 | 0.00 | 0.00 | 54 | 1008.3 |
| 20260903194441 | 27 | 253 | 1.6 | 9.7 | 0.00 | 0.00 | 0.00 | 54 | 1008.3 |
| 20260903193942 | 27 | 245 | 1.6 | 11.3 | 0.00 | 0.00 | 0.00 | 52 | 1008.3 |
| 20260903193415 | 27 | 160 | 4.8 | 19.3 | 0.00 | 0.00 | 0.00 | 51 | 1008.3 |
| 20260903192849 | 27 | 294 | 4.8 | 19.3 | 0.00 | 0.00 | 0.00 | 53 | 1008.2 |
| 20260903192337 | 27 | 353 | 4.8 | 17.7 | 0.00 | 0.00 | 0.00 | 53 | 1008.1 |
| 20260903191811 | 27 | 338 | 4.8 | 11.3 | 0.00 | 0.00 | 0.00 | 53 | 1008.1 |
| 20260903191300 | 27 | 317 | 4.8 | 22.5 | 0.00 | 0.00 | 0.00 | 51 | 1008.0 |
| 20260903190801 | 27 | 285 | 6.4 | 22.5 | 0.00 | 0.00 | 0.00 | 49 | 1008.0 |
| 20260903190230 | 27 | 269 | 3.2 | 20.9 | 0.00 | 0.00 | 0.00 | 50 | 1008.0 |
| 20260903185729 | 27 | 333 | 0.0 | 11.3 | 0.00 | 0.00 | 0.00 | 54 | 1008.1 |
| 20260903185224 | 27 | 333 | 0.0 | 11.3 | 0.00 | 0.00 | 0.00 | 56 | 1008.1 |
| 20260903184720 | 27 | 237 | 3.2 | 11.3 | 0.00 | 0.00 | 0.00 | 53 | 1008.2 |
| 20260903184219 | 27 | 278 | 3.2 | 11.3 | 0.00 | 0.00 | 0.00 | 52 | 1008.3 |
| 20260903183655 | 27 | 291 | 3.2 | 11.3 | 0.00 | 0.00 | 0.00 | 54 | 1008.3 |
| 20260903183127 | 28 | 276 | 3.2 | 11.3 | 0.00 | 0.00 | 0.00 | 54 | 1008.4 |
| 20260903182604 | 28 | 342 | 4.8 | 14.5 | 0.00 | 0.00 | 0.00 | 51 | 1008.3 |
| 20260903182033 | 28 | 240 | 4.8 | 14.5 | 0.00 | 0.00 | 0.00 | 50 | 1008.3 |
| 20260903181523 | 28 | 347 | 3.2 | 12.9 | 0.00 | 0.00 | 0.00 | 49 | 1008.4 |
| 20260903181010 | 28 | 303 | 3.2 | 11.3 | 0.00 | 0.00 | 0.00 | 49 | 1008.5 |
| 20260903180508 | 28 | 271 | 1.6 | 11.3 | 0.00 | 0.00 | 0.00 | 50 | 1008.5 |
| 20260903180009 | 28 | 314 | 1.6 | 14.5 | 0.00 | 0.00 | 0.00 | 51 | 1008.6 |
| 20260903175442 | 27 | 245 | 4.8 | 14.5 | 0.00 | 0.00 | 0.00 | 51 | 1008.6 |
| 20260903174941 | 27 | 19 | 6.4 | 14.5 | 0.00 | 0.00 | 0.00 | 52 | 1008.6 |
| 20260903174437 | 27 | 276 | 4.8 | 22.5 | 0.00 | 0.00 | 0.00 | 49 | 1008.8 |
| 20260903173932 | 28 | 320 | 6.4 | 22.5 | 0.00 | 0.00 | 0.00 | 52 | 1008.8 |
| 20260903173422 | 28 | 266 | 9.7 | 25.7 | 0.00 | 0.00 | 0.00 | 49 | 1008.7 |
| 20260903172922 | 28 | 262 | 11.3 | 25.7 | 0.00 | 0.00 | 0.00 | 50 | 1008.7 |
| 20260903172421 | 28 | 306 | 11.3 | 27.4 | 0.00 | 0.00 | 0.00 | 48 | 1008.8 |
| 20260903171856 | 28 | 339 | 9.7 | 27.4 | 0.00 | 0.00 | 0.00 | 48 | 1008.8 |
| 20260903171332 | 28 | 8 | 8.0 | 19.3 | 0.00 | 0.00 | 0.00 | 51 | 1008.8 |
| 20260903170828 | 28 | 353 | 8.0 | 20.9 | 0.00 | 0.00 | 0.00 | 53 | 1009.0 |
| 20260903170327 | 28 | 326 | 9.7 | 20.9 | 0.00 | 0.00 | 0.00 | 52 | 1009.1 |
| 20260903165759 | 27 | 337 | 8.0 | 22.5 | 0.00 | 0.00 | 0.00 | 52 | 1009.3 |
| 20260903165250 | 27 | 94 | 6.4 | 24.1 | 0.00 | 0.00 | 0.00 | 54 | 1009.3 |
| 20260903164751 | 27 | 349 | 8.0 | 17.7 | 0.00 | 0.00 | 0.00 | 54 | 1009.5 |
| 20260903164502 | 27 | 14 | 8.0 | 19.3 | 0.00 | 0.00 | 0.00 | 51 | 1009.6 |
| 20260903163730 | 27 | 343 | 8.0 | 20.9 | 0.00 | 0.00 | 0.00 | 51 | 1009.7 |
| 20260903163223 | 27 | 301 | 11.3 | 27.4 | 0.00 | 0.00 | 0.00 | 52 | 1009.7 |
| 20260903162941 | 27 | 323 | 9.7 | 27.4 | 0.00 | 0.00 | 0.00 | 51 | 1009.9 |
| 20260903162204 | 27 | 316 | 8.0 | 22.5 | 0.00 | 0.00 | 0.00 | 52 | 1010.0 |
| 20260903161657 | 27 | 33 | 11.3 | 24.1 | 0.00 | 0.00 | 0.00 | 51 | 1010.0 |
| 20260903161419 | 27 | 345 | 12.9 | 33.8 | 0.00 | 0.00 | 0.00 | 53 | 1010.0 |
| 20260903160640 | 27 | 344 | 11.3 | 33.8 | 0.00 | 0.00 | 0.00 | 51 | 1010.2 |
| 20260903160113 | 28 | 282 | 11.3 | 24.1 | 0.00 | 0.00 | 0.00 | 54 | 1010.3 |
| 20260903155608 | 27 | 312 | 14.5 | 32.2 | 0.00 | 0.00 | 0.00 | 56 | 1010.4 |
| 20260903155043 | 27 | 322 | 11.3 | 32.2 | 0.00 | 0.00 | 0.00 | 55 | 1010.5 |
| 20260903154543 | 27 | 308 | 6.4 | 20.9 | 0.00 | 0.00 | 0.00 | 59 | 1010.7 |
| 20260903154027 | 27 | 345 | 6.4 | 17.7 | 0.00 | 0.00 | 0.00 | 59 | 1010.7 |
| 20260903153526 | 27 | 358 | 6.4 | 17.7 | 0.00 | 0.00 | 0.00 | 60 | 1010.9 |
| 20260903153004 | 27 | 0 | 6.4 | 19.3 | 0.00 | 0.00 | 0.00 | 62 | 1011.0 |
| 20260903152436 | 26 | 310 | 8.0 | 19.3 | 0.00 | 0.00 | 0.00 | 63 | 1011.0 |
| 20260903151934 | 26 | 341 | 8.0 | 20.9 | 0.00 | 0.00 | 0.00 | 65 | 1011.1 |
| 20260903151432 | 26 | 343 | 8.0 | 20.9 | 0.00 | 0.00 | 0.00 | 61 | 1011.2 |
| 20260903150924 | 26 | 295 | 8.0 | 16.1 | 0.00 | 0.00 | 0.00 | 62 | 1011.5 |
| 20260903150425 | 26 | 39 | 9.7 | 19.3 | 0.00 | 0.00 | 0.00 | 61 | 1011.6 |
| 20260903145904 | 25 | 35 | 11.3 | 19.3 | 0.00 | 0.00 | 0.00 | 62 | 1011.8 |
| 20260903145336 | 25 | 343 | 9.7 | 19.3 | 0.00 | 0.00 | 0.00 | 62 | 1011.9 |
| 20260903144808 | 25 | 18 | 9.7 | 20.9 | 0.00 | 0.00 | 0.00 | 61 | 1011.9 |
| 20260903144254 | 25 | 47 | 8.0 | 20.9 | 0.00 | 0.00 | 0.00 | 62 | 1012.1 |
| 20260903143754 | 25 | 10 | 8.0 | 17.7 | 0.00 | 0.00 | 0.00 | 62 | 1012.2 |
| 20260903143254 | 25 | 15 | 8.0 | 16.1 | 0.00 | 0.00 | 0.00 | 63 | 1012.2 |
| 20260903142752 | 25 | 65 | 6.4 | 16.1 | 0.00 | 0.00 | 0.00 | 64 | 1012.3 |
| 20260903142253 | 25 | 7 | 6.4 | 14.5 | 0.00 | 0.00 | 0.00 | 65 | 1012.4 |
| 20260903141754 | 25 | 337 | 6.4 | 14.5 | 0.00 | 0.00 | 0.00 | 65 | 1012.5 |
| 20260903141521 | 24 | 12 | 8.0 | 16.1 | 0.00 | 0.00 | 0.00 | 66 | 1012.5 |
| 20260903140749 | 24 | 353 | 9.7 | 24.1 | 0.00 | 0.00 | 0.00 | 65 | 1012.7 |
| 20260903140221 | 24 | 352 | 8.0 | 24.1 | 0.00 | 0.00 | 0.00 | 64 | 1012.8 |
| 20260903135715 | 24 | 273 | 8.0 | 19.3 | 0.00 | 0.00 | 0.00 | 64 | 1012.8 |
| 20260903135149 | 23 | 337 | 8.0 | 19.3 | 0.00 | 0.00 | 0.00 | 65 | 1012.8 |
| 20260903134645 | 23 | 22 | 8.0 | 16.1 | 0.00 | 0.00 | 0.00 | 64 | 1012.9 |
| 20260903134114 | 23 | 35 | 6.4 | 17.7 | 0.00 | 0.00 | 0.00 | 65 | 1012.8 |
| 20260903133613 | 23 | 42 | 8.0 | 22.5 | 0.00 | 0.00 | 0.00 | 65 | 1013.1 |
| 20260903133333 | 23 | 347 | 8.0 | 22.5 | 0.00 | 0.00 | 0.00 | 65 | 1012.9 |
| 20260903132601 | 23 | 280 | 9.7 | 22.5 | 0.00 | 0.00 | 0.00 | 67 | 1013.0 |
| 20260903132033 | 22 | 334 | 8.0 | 22.5 | 0.00 | 0.00 | 0.00 | 66 | 1013.1 |
| 20260903131507 | 22 | 3 | 8.0 | 16.1 | 0.00 | 0.00 | 0.00 | 67 | 1013.2 |
| 20260903131231 | 22 | 33 | 8.0 | 22.5 | 0.00 | 0.00 | 0.00 | 67 | 1013.3 |
| 20260903130458 | 22 | 44 | 9.7 | 22.5 | 0.00 | 0.00 | 0.00 | 68 | 1013.5 |
| 20260903125942 | 21 | 334 | 6.4 | 16.1 | 0.00 | 0.00 | 0.00 | 70 | 1013.5 |